Total_Precipitation_Accumulation
0.28 0.48 0.45 0.29 0.29 0.28 0.24 0.24 0.17 0.07 0.06 0.14 0.14 0.09 0.05 0.04 0.05 0.05 0.06 0.08 0.07 0.05 0.04 0.06 0.11 0.17 0.22 0.24 0.28 0.32 0.38 0.44 0.52 0.60 0.70 0.60 0.51 0.41 0.34 0.29 0.23 0.17 0.12 0.07
0.38 0.41 0.22 0.15 0.18 0.22 0.26 0.31 0.22 0.12 0.08 0.17 0.16 0.09 0.05 0.04 0.05 0.06 0.06 0.09 0.09 0.05 0.05 0.05 0.08 0.17 0.24 0.27 0.29 0.32 0.37 0.41 0.46 0.50 0.55 0.59 0.47 0.42 0.33 0.28 0.26 0.20 0.15 0.10
0.34 0.24 0.14 0.19 0.26 0.32 0.30 0.28 0.22 0.17 0.14 0.19 0.22 0.14 0.04 0.03 0.04 0.05 0.06 0.07 0.08 0.07 0.06 0.05 0.06 0.12 0.21 0.26 0.29 0.31 0.34 0.38 0.41 0.48 0.54 0.65 0.64 0.54 0.44 0.32 0.26 0.20 0.16 0.13
0.24 0.15 0.17 0.23 0.27 0.34 0.34 0.19 0.19 0.21 0.33 0.34 0.29 0.30 0.06 0.03 0.03 0.04 0.05 0.05 0.06 0.07 0.06 0.05 0.05 0.09 0.15 0.18 0.26 0.33 0.34 0.36 0.39 0.47 0.51 0.55 0.60 0.53 0.38 0.28 0.24 0.22 0.17 0.14
0.35 0.18 0.23 0.27 0.19 0.22 0.25 0.18 0.22 0.26 0.41 0.49 0.34 0.38 0.12 0.04 0.05 0.04 0.04 0.05 0.04 0.06 0.07 0.06 0.05 0.07 0.11 0.15 0.23 0.35 0.41 0.41 0.39 0.41 0.47 0.49 0.54 0.53 0.43 0.33 0.26 0.23 0.20 0.16
0.29 0.19 0.24 0.23 0.15 0.16 0.21 0.27 0.36 0.44 0.72 0.95 0.34 0.31 0.17 0.07 0.09 0.08 0.06 0.05 0.04 0.05 0.07 0.07 0.06 0.06 0.11 0.19 0.25 0.35 0.47 0.45 0.41 0.39 0.41 0.43 0.46 0.56 0.54 0.43 0.32 0.24 0.21 0.19
0.32 0.23 0.24 0.22 0.23 0.25 0.39 0.72 1.11 1.21 1.32 0.84 0.17 0.20 0.18 0.08 0.06 0.08 0.09 0.07 0.05 0.04 0.06 0.06 0.06 0.06 0.09 0.18 0.25 0.33 0.46 0.44 0.40 0.38 0.39 0.38 0.39 0.47 0.55 0.48 0.36 0.29 0.22 0.18
0.43 0.30 0.25 0.26 0.31 0.38 0.44 0.68 0.98 0.90 0.58 0.21 0.09 0.16 0.14 0.08 0.05 0.04 0.05 0.06 0.06 0.05 0.05 0.07 0.07 0.06 0.07 0.12 0.21 0.29 0.44 0.42 0.37 0.36 0.36 0.35 0.41 0.41 0.47 0.50 0.41 0.32 0.24 0.17
0.52 0.31 0.16 0.15 0.18 0.27 0.42 0.45 0.43 0.63 0.47 0.27 0.18 0.13 0.10 0.06 0.04 0.03 0.04 0.05 0.06 0.06 0.05 0.06 0.07 0.07 0.06 0.08 0.16 0.23 0.38 0.41 0.34 0.34 0.34 0.31 0.37 0.40 0.40 0.44 0.43 0.36 0.28 0.22
0.65 0.41 0.19 0.17 0.20 0.26 0.36 0.45 0.49 0.80 0.79 0.49 0.28 0.16 0.16 0.11 0.07 0.05 0.05 0.05 0.06 0.06 0.05 0.05 0.07 0.07 0.06 0.07 0.11 0.19 0.28 0.39 0.34 0.32 0.34 0.31 0.31 0.35 0.37 0.42 0.43 0.39 0.34 0.28
0.60 0.58 0.32 0.29 0.40 0.45 0.42 0.54 0.71 0.74 0.58 0.48 0.38 0.27 0.24 0.17 0.13 0.10 0.07 0.06 0.06 0.06 0.06 0.06 0.07 0.07 0.06 0.06 0.09 0.18 0.25 0.34 0.37 0.33 0.31 0.31 0.30 0.31 0.34 0.36 0.37 0.42 0.42 0.36
0.51 0.65 0.48 0.32 0.34 0.36 0.45 0.53 0.63 0.76 0.58 0.32 0.32 0.30 0.21 0.15 0.13 0.11 0.09 0.06 0.05 0.05 0.06 0.06 0.07 0.08 0.07 0.06 0.07 0.13 0.24 0.31 0.33 0.35 0.33 0.28 0.30 0.30 0.31 0.30 0.29 0.32 0.41 0.43
0.74 0.88 0.72 0.53 0.49 0.42 0.56 0.54 0.53 0.53 0.45 0.36 0.31 0.23 0.15 0.12 0.11 0.11 0.10 0.08 0.06 0.05 0.04 0.05 0.07 0.08 0.08 0.07 0.07 0.09 0.16 0.27 0.31 0.36 0.40 0.32 0.32 0.31 0.29 0.29 0.27 0.29 0.33 0.43
0.74 0.83 0.67 0.64 0.60 0.54 0.52 0.46 0.42 0.50 0.55 0.35 0.22 0.17 0.15 0.14 0.13 0.12 0.12 0.10 0.09 0.06 0.04 0.04 0.06 0.08 0.09 0.07 0.06 0.07 0.10 0.19 0.29 0.33 0.40 0.36 0.32 0.31 0.28 0.26 0.26 0.28 0.36 0.46
0.55 0.58 0.31 0.18 0.16 0.23 0.28 0.27 0.29 0.36 0.37 0.29 0.18 0.15 0.18 0.17 0.18 0.17 0.15 0.13 0.09 0.08 0.05 0.04 0.05 0.08 0.09 0.08 0.06 0.07 0.08 0.12 0.21 0.28 0.34 0.34 0.32 0.33 0.30 0.28 0.28 0.30 0.38 0.48
0.53 0.50 0.25 0.13 0.09 0.13 0.17 0.16 0.19 0.20 0.21 0.19 0.14 0.16 0.15 0.16 0.15 0.15 0.15 0.14 0.12 0.10 0.08 0.05 0.05 0.06 0.08 0.08 0.08 0.07 0.07 0.09 0.14 0.20 0.26 0.29 0.30 0.36 0.36 0.33 0.32 0.31 0.34 0.42
0.54 0.50 0.40 0.20 0.09 0.22 0.32 0.22 0.20 0.19 0.19 0.20 0.21 0.21 0.15 0.15 0.15 0.15 0.14 0.14 0.15 0.13 0.10 0.08 0.06 0.06 0.07 0.07 0.08 0.08 0.07 0.07 0.09 0.12 0.18 0.24 0.25 0.28 0.32 0.32 0.32 0.31 0.33 0.36
0.43 0.48 0.54 0.32 0.28 0.52 0.36 0.16 0.18 0.22 0.23 0.22 0.22 0.18 0.15 0.15 0.16 0.14 0.13 0.14 0.15 0.14 0.11 0.09 0.08 0.06 0.05 0.05 0.06 0.07 0.08 0.07 0.08 0.09 0.11 0.18 0.21 0.22 0.26 0.26 0.25 0.26 0.31 0.36
0.25 0.46 0.66 0.52 0.41 0.30 0.18 0.10 0.17 0.27 0.29 0.21 0.17 0.13 0.13 0.13 0.13 0.14 0.13 0.10 0.10 0.12 0.11 0.09 0.08 0.07 0.05 0.05 0.05 0.06 0.07 0.07 0.06 0.08 0.08 0.12 0.17 0.19 0.21 0.22 0.19 0.19 0.23 0.29
0.27 0.46 0.75 0.65 0.49 0.29 0.19 0.08 0.11 0.23 0.35 0.18 0.12 0.11 0.12 0.15 0.19 0.16 0.12 0.08 0.06 0.07 0.08 0.07 0.06 0.05 0.05 0.05 0.05 0.05 0.06 0.06 0.05 0.07 0.07 0.08 0.13 0.15 0.15 0.16 0.16 0.16 0.16 0.19
0.47 0.70 0.81 0.61 0.45 0.20 0.13 0.08 0.13 0.33 0.37 0.16 0.11 0.09 0.11 0.17 0.21 0.14 0.09 0.08 0.05 0.05 0.05 0.06 0.05 0.05 0.05 0.05 0.06 0.05 0.06 0.06 0.05 0.05 0.06 0.06 0.08 0.12 0.13 0.14 0.14 0.15 0.15 0.15
0.42 0.60 0.59 0.51 0.46 0.23 0.11 0.13 0.28 0.34 0.15 0.09 0.07 0.07 0.07 0.09 0.10 0.08 0.07 0.07 0.06 0.04 0.04 0.05 0.05 0.05 0.04 0.04 0.05 0.06 0.06 0.06 0.05 0.04 0.06 0.06 0.06 0.10 0.12 0.13 0.14 0.14 0.16 0.16
0.29 0.44 0.46 0.40 0.30 0.17 0.13 0.19 0.19 0.15 0.11 0.07 0.06 0.05 0.06 0.06 0.07 0.08 0.08 0.06 0.06 0.05 0.04 0.04 0.05 0.05 0.04 0.03 0.04 0.05 0.06 0.06 0.05 0.05 0.06 0.07 0.07 0.10 0.12 0.13 0.14 0.15 0.16 0.19
0.17 0.21 0.28 0.22 0.14 0.12 0.12 0.12 0.11 0.07 0.07 0.06 0.06 0.06 0.06 0.05 0.05 0.07 0.07 0.08 0.08 0.07 0.05 0.04 0.04 0.05 0.05 0.04 0.03 0.04 0.05 0.06 0.07 0.06 0.07 0.08 0.08 0.09 0.11 0.13 0.14 0.14 0.17 0.27
0.12 0.15 0.20 0.18 0.12 0.09 0.07 0.08 0.09 0.07 0.06 0.05 0.05 0.06 0.06 0.05 0.05 0.05 0.06 0.07 0.07 0.06 0.05 0.04 0.04 0.05 0.05 0.05 0.04 0.03 0.04 0.06 0.08 0.08 0.09 0.09 0.10 0.10 0.11 0.13 0.14 0.16 0.17 0.33
0.07 0.12 0.16 0.13 0.09 0.10 0.07 0.05 0.07 0.08 0.07 0.07 0.07 0.06 0.05 0.05 0.04 0.05 0.06 0.06 0.05 0.06 0.05 0.05 0.04 0.05 0.06 0.06 0.05 0.04 0.04 0.06 0.09 0.10 0.12 0.12 0.11 0.12 0.12 0.13 0.14 0.18 0.19 0.24